Terminal Aerodrome Forecast
Issued by NWS Sterling, VA

Current Version | Previous Version | Graphics & Text | Print | Product List | Glossary On
Versions: 1 2 3 4 5 6 7 8 9 10 11 12 13 14 15 16 17 18 19 20 21
000
FTUS41 KLWX 172100 AAA
TAFIAD
TAF AMD
KIAD 172121Z 1721/1824 28005KT P6SM BKN060
     FM172300 VRB03KT P6SM SCT050
     FM180500 VRB03KT P6SM BKN050=

USA.gov is the U.S. government's official web portal to all federal, state and local government web resources and services.